Find Starlink 31589

NORAD ID: 59654 Int'l Des: 2024-084 Owner: SPXS Country: US Constellation: starlink operational
LEOCIRCULAR

現在のビュー

3D地球を読み込み中...

About Starlink 31589

Starlink 31589 (NORAD 59654) is a starlink constellation satellite (v2 mini) launched May 6, 2024 by SPXS of US. It operates in LEO, CIRCULAR orbit with a mass of 730.00 kg.

Starlink 31589について

説明を読み込み中...

次回通過

Passes for default location (London). Set your location on the main map for personalized predictions.

高度履歴

Loading altitude history...

軌道要素

1 59654U 24084A 26174.67146951 -.00000129 00000-0 48143-5 0 9994
2 59654 43.0016 163.1031 0001013 266.7902 93.2834 15.27574714120608
Epoch: Jun 23, 2026 • Age: 14 hours

現在のステータス

高度 484.6 km
速度 7.63 km/s
衛星直下点 32.39°N, 167.08°W
打ち上げ日 May 6, 2024
運用期間 2.1 years
タイプ internet

技術仕様

分類 Payload
質量 730.00 kg
乾燥質量 700.00 kg
総質量 730.00 kg
長さ 0.30 m
直径 4.10 m
スパン 29.00 m
形状 Box + pan
製造者 SPXS
バスタイプ Starlink V2M
フェーズステータス In Orbit
所有者/国 SPXS/US

Most Searched